Volver al catálogo

YAOGAN 29

ActivoMilitarSSO
NORAD 41038·PAYLOAD·🇨🇳 China

Lanzado Nov 26, 2015 desde Taiyuan Satellite Launch Center

Loading…

Próximos Pases (próximas 24 horas)

TLE

ActualizadoSource: Space-Track

Época: Sep 14, 2026, 15:19 UTC

1 41038U 15069A   26257.63860713  .00000191  00000-0  30002-4 0  9993
2 41038  97.9984 286.3957 0002884  89.4468 270.7076 14.83143210583883

Sigue YAOGAN 29 en tiempo real con AllMySat

Download on the App Store